Date,TemperatureHighF,TemperatureAvgF,TemperatureLowF,DewpointHighF,DewpointAvgF,DewpointLowF,HumidityHigh,HumidityAvg,HumidityLow,PressureMaxIn,PressureMinIn,WindSpeedMaxMPH,WindSpeedAvgMPH,GustSpeedMaxMPH,PrecipitationSumIn
2013-1-1,60.0,50.9,41.0,41.0,30.2,17.0,87,52,21,30.23,30.08,4,2,0,0.00
2013-1-2,68.0,56.7,45.0,31.0,22.9,16.0,53,29,17,30.14,30.02,7,2,0,0.00
2013-1-3,71.0,57.3,42.0,29.0,22.0,11.0,60,28,13,30.16,30.04,3,1,0,0.00
2013-1-4,66.0,56.1,44.0,32.0,20.6,7.0,54,28,15,30.27,30.16,3,1,0,0.00
2013-1-5,64.0,50.1,39.0,44.0,32.9,25.0,86,54,24,30.28,30.17,3,0,0,0.00
2013-1-6,56.0,50.1,45.0,49.0,44.7,42.0,95,82,63,30.20,30.01,4,1,0,0.00
2013-1-7,66.0,51.5,40.0,43.0,38.3,32.0,92,65,30,30.09,29.97,3,0,0,0.00
2013-1-8,46.0,46.0,46.0,33.0,33.0,33.0,61,61,61,30.03,30.03,0,0,0,0.00
2013-1-9,55.0,53.5,52.0,52.0,50.5,49.0,90,89,88,30.04,30.01,1,0,0,0.00
2013-1-10,58.0,51.8,43.0,50.0,39.0,22.0,94,66,25,30.06,29.89,7,2,0,0.00
2013-1-11,55.0,45.0,34.0,31.0,27.4,22.0,78,53,29,30.17,30.03,5,2,0,0.00
2013-1-12,56.0,44.8,34.0,33.0,26.2,17.0,77,51,22,30.15,30.05,3,1,0,0.00
2013-1-13,56.0,45.7,38.0,31.0,25.1,13.0,69,47,24,30.16,30.04,4,1,0,0.00
2013-1-14,55.0,46.4,40.0,13.0,7.2,2.0,29,20,13,30.32,30.13,6,3,0,0.00
2013-1-15,60.0,48.2,36.0,30.0,20.2,11.0,62,35,19,30.43,30.30,5,1,0,0.00
2013-1-16,70.0,54.6,40.0,41.0,31.0,21.0,67,44,17,30.35,30.11,4,1,0,0.00
2013-1-17,78.0,67.6,52.0,28.0,19.3,14.0,40,17,9,30.17,30.04,5,3,0,0.00
2013-1-18,78.0,69.1,62.0,24.0,19.3,16.0,19,15,11,30.13,30.04,4,2,0,0.00
2013-1-19,78.0,69.1,64.0,19.0,15.5,11.0,16,13,8,30.17,30.07,4,2,0,0.00
2013-1-20,80.0,69.2,60.0,20.0,12.6,6.0,21,11,6,30.13,29.99,4,2,0,0.00
2013-1-21,82.0,70.8,59.0,32.0,13.7,6.0,31,12,6,30.08,29.99,5,2,0,0.00
2013-1-22,82.0,68.0,56.0,32.0,17.4,6.0,29,16,6,30.09,30.00,4,1,0,0.00
2013-1-23,75.0,64.4,58.0,47.0,33.1,25.0,62,31,25,30.14,30.01,3,1,0,0.00
2013-1-24,65.0,59.1,54.0,57.0,53.4,46.0,91,82,62,30.21,30.10,3,1,0,0.00
2013-1-25,64.0,61.6,59.0,59.0,56.4,53.0,89,83,68,30.12,29.93,3,1,0,0.00
2013-1-26,64.0,59.8,57.0,62.0,57.5,55.0,95,92,87,29.99,29.88,3,0,0,0.00
2013-1-27,60.0,54.9,50.0,56.0,50.5,45.0,96,85,64,30.02,29.95,4,1,0,0.00
2013-1-28,60.0,49.4,40.0,47.0,38.4,28.0,93,69,31,30.16,30.00,5,1,0,0.00
2013-1-29,59.0,48.3,39.0,43.0,39.3,35.0,86,72,45,30.23,30.14,3,0,0,0.00
2013-1-30,69.0,54.3,42.0,46.0,41.9,39.0,90,67,36,30.34,30.20,3,0,0,0.00
2013-1-31,78.0,63.9,46.0,48.0,41.9,37.0,82,49,24,30.21,30.08,3,1,0,0.00
2013-2-1,75.0,60.9,49.0,47.0,44.0,40.0,74,56,34,30.16,30.09,3,0,0,0.00
2013-2-2,76.0,64.1,55.0,55.0,47.3,40.0,81,57,28,30.18,30.09,2,0,0,0.00
2013-2-3,74.0,64.2,52.0,55.0,48.5,45.0,83,59,38,30.14,29.99,3,1,0,0.00
2013-2-4,69.0,56.3,47.0,54.0,49.3,44.0,93,79,56,30.07,29.97,2,1,0,0.00
2013-2-5,57.0,53.3,50.0,51.0,50.0,49.0,95,88,80,30.10,29.98,3,0,0,0.00
2013-2-6,64.0,55.7,48.0,51.0,48.4,45.0,91,77,57,30.11,29.99,3,0,0,0.00
2013-2-7,62.0,52.3,45.0,52.0,47.4,43.0,95,84,68,30.13,29.99,2,1,0,0.00
2013-2-8,52.0,47.7,43.0,48.0,42.9,39.0,92,84,74,29.99,29.87,3,1,0,0.00
2013-2-9,57.0,46.2,37.0,45.0,38.8,36.0,96,78,48,30.10,29.92,3,0,0,0.00
2013-2-10,55.0,47.7,40.0,44.0,41.1,37.0,91,79,59,30.11,30.01,2,0,0,0.00
2013-2-11,62.0,50.0,39.0,44.0,35.9,21.0,93,65,21,30.23,30.05,4,1,0,0.00
2013-2-12,64.0,49.6,38.0,42.0,36.7,32.0,83,63,33,30.34,30.22,3,1,0,0.00
2013-2-13,68.0,52.3,39.0,44.0,38.5,34.0,84,63,32,30.26,30.13,3,1,0,0.00
2013-2-14,75.0,57.0,42.0,51.0,41.6,31.0,85,60,24,30.20,30.04,3,1,0,0.00
2013-2-15,80.0,70.4,61.0,32.0,26.8,20.0,31,20,13,30.18,30.10,5,2,0,0.00
2013-2-16,72.0,67.1,65.0,23.0,19.5,16.0,18,16,14,30.15,30.11,4,2,0,0.00
2013-2-19,45.0,44.4,44.0,43.0,42.0,41.0,93,91,88,29.74,29.70,1,0,0,0.00
2013-2-20,59.0,49.0,37.0,44.0,38.3,32.0,94,70,41,29.99,29.69,4,1,0,0.00
2013-2-21,49.0,45.1,42.0,42.0,39.6,38.0,86,81,75,30.01,29.98,0,0,0,0.00
2013-2-22,61.0,52.1,47.0,42.0,40.4,37.0,82,66,42,30.17,30.13,1,0,0,0.00
2013-2-23,64.0,51.8,41.0,47.0,40.3,34.0,87,67,38,30.16,29.91,4,1,0,0.00
2013-2-24,67.0,56.4,46.0,43.0,21.0,11.0,89,32,13,30.11,29.97,6,4,0,0.00
2013-2-25,68.0,57.0,41.0,41.0,30.6,19.0,81,41,16,30.21,30.06,4,1,0,0.00
2013-2-26,75.0,53.9,39.0,47.0,36.8,26.0,81,57,17,30.08,29.96,5,1,0,0.00
2013-2-27,75.0,65.4,54.0,29.0,19.6,11.0,32,18,12,30.25,30.12,4,2,0,0.00
2013-2-28,80.0,65.8,52.0,31.0,20.4,11.0,38,19,9,30.30,30.21,6,1,0,0.00
2013-3-1,86.0,70.1,53.0,36.0,28.0,20.0,39,23,11,30.29,30.13,4,1,0,0.00
2013-3-2,83.0,69.7,55.0,39.0,32.3,27.0,44,27,13,30.20,30.06,4,1,0,0.00
2013-3-3,59.0,56.3,55.0,52.0,51.4,49.0,89,83,69,30.01,29.99,2,1,0,0.00
2013-3-4,68.0,58.7,53.0,53.0,50.9,49.0,90,76,53,30.10,30.00,3,1,0,0.00
2013-3-5,63.0,55.3,50.0,54.0,51.1,48.0,94,86,69,30.10,30.02,4,1,0,0.00
2013-3-6,64.0,58.5,51.0,51.0,46.2,44.0,92,65,51,30.15,30.01,4,2,0,0.00
2013-3-7,59.0,54.6,51.0,52.0,48.4,45.0,95,80,60,30.01,29.85,3,1,0,0.00
2013-3-8,53.0,49.8,46.0,48.0,45.7,41.0,94,86,73,30.02,29.76,4,1,0,0.00
2013-3-9,63.0,54.2,49.0,49.0,47.1,44.0,93,79,52,30.12,30.01,4,1,0,0.00
2013-3-13,75.0,65.8,59.0,55.0,54.6,53.0,83,68,50,30.07,30.01,1,0,0,0.00
2013-3-14,83.0,65.6,49.0,59.0,52.3,48.0,96,66,37,30.08,29.99,3,1,0,0.00
2013-3-15,77.0,61.8,52.0,58.0,53.7,51.0,97,77,49,30.03,29.93,5,1,0,0.00
2013-3-16,69.0,57.7,52.0,54.0,51.8,50.0,95,82,55,29.97,29.88,3,1,0,0.00
2013-3-17,69.0,58.8,53.0,55.0,52.2,50.0,92,80,56,30.00,29.92,3,1,0,0.00
2013-3-18,64.0,57.3,53.0,54.0,51.9,50.0,92,82,68,30.08,29.98,3,1,0,0.00
2013-3-19,69.0,57.0,49.0,56.0,51.5,47.0,94,83,58,30.11,30.03,3,1,0,0.00
2013-3-20,70.0,59.8,51.0,57.0,52.8,49.0,93,79,57,30.11,29.95,3,1,0,0.00
2013-3-21,67.0,56.2,51.0,55.0,51.0,48.0,91,83,60,29.96,29.88,2,0,0,0.00
2013-3-24,76.0,65.4,52.0,56.0,53.0,51.0,96,67,43,30.01,29.88,3,1,0,0.00
2013-3-25,77.0,61.7,50.0,57.0,52.0,48.0,93,73,43,29.98,29.88,3,1,0,0.00
2013-3-26,71.0,60.3,54.0,56.0,53.1,51.0,94,79,51,29.96,29.89,4,1,0,0.00
2013-3-27,70.0,60.7,55.0,55.0,52.7,51.0,90,76,53,30.04,29.92,3,1,0,0.00
2013-3-28,75.0,61.8,53.0,57.0,53.4,51.0,93,76,46,30.07,30.00,4,1,0,0.00
2013-3-29,75.0,61.2,54.0,59.0,54.9,52.0,96,81,55,30.11,30.03,4,1,0,0.00
2013-3-30,74.0,62.3,56.0,57.0,53.0,-99.9,93,76,51,30.12,30.04,4,1,0,0.00
2013-3-31,70.0,60.8,55.0,57.0,54.3,52.0,91,80,64,30.12,30.04,4,1,0,0.00
2013-4-1,66.0,59.4,55.0,54.0,52.1,49.0,90,77,57,30.16,30.06,4,2,0,0.00
2013-4-2,72.0,60.9,54.0,55.0,53.1,51.0,91,77,54,30.09,29.97,4,1,0,0.00
2013-4-3,77.0,62.3,52.0,59.0,54.4,49.0,94,78,49,30.08,29.97,3,1,0,0.00
2013-4-4,74.0,63.0,56.0,58.0,55.4,54.0,92,78,54,30.10,29.99,4,1,0,0.00
2013-4-5,70.0,61.5,57.0,58.0,56.0,54.0,94,83,63,30.08,29.98,3,1,0,0.00
2013-4-6,70.0,62.4,57.0,57.0,54.5,53.0,90,76,62,30.07,29.95,5,1,0,0.00
2013-4-8,68.0,62.8,55.0,48.0,41.5,36.0,74,47,34,29.80,29.64,7,4,0,0.00
2013-4-9,72.0,57.4,47.0,44.0,39.4,26.0,77,56,19,29.91,29.80,4,1,0,0.00
2013-4-10,81.0,69.5,48.0,47.0,35.5,24.0,67,33,13,30.09,29.97,6,2,0,0.00
2013-4-11,77.0,61.6,51.0,55.0,46.2,38.0,83,59,26,30.00,29.78,5,1,0,0.00
2013-4-12,74.0,62.2,56.0,57.0,53.6,51.0,88,75,51,29.89,29.76,3,1,0,0.00
2013-4-13,63.0,58.2,55.0,56.0,54.0,51.0,92,86,77,29.91,29.83,3,1,0,0.00
2013-4-14,63.0,57.3,54.0,53.0,51.2,49.0,91,80,68,29.88,29.81,3,1,0,0.00
2013-4-15,64.0,57.6,55.0,54.0,51.4,49.0,87,80,67,29.90,29.83,5,2,0,0.00
2013-4-16,64.0,56.0,49.0,51.0,45.2,40.0,90,69,44,29.97,29.86,7,2,0,0.00
2013-4-17,73.0,58.6,45.0,45.0,32.8,20.0,82,43,14,30.11,29.97,7,2,0,0.00
2013-4-18,80.0,66.1,50.0,36.0,24.2,15.0,53,24,9,30.19,30.09,8,3,0,0.00
2013-4-19,79.0,58.0,50.0,37.0,30.6,17.0,47,37,10,30.15,30.12,3,1,0,0.00
2013-4-20,84.0,73.3,54.0,55.0,47.3,39.0,72,42,25,29.96,29.87,5,2,0,0.00
2013-4-21,81.0,66.5,53.0,57.0,51.3,48.0,83,61,33,30.00,29.93,5,2,0,0.00
2013-4-23,77.0,65.1,57.0,56.0,53.5,51.0,85,68,47,29.97,29.84,5,2,2,0.00
2013-4-24,62.0,59.4,58.0,56.0,53.0,49.0,87,80,67,29.98,29.90,5,1,0,0.00
2013-4-25,70.0,62.1,56.0,54.0,52.0,49.0,84,70,51,30.10,29.96,5,1,0,0.00
2013-4-26,78.0,64.1,50.0,56.0,52.2,47.0,91,68,44,30.14,30.08,5,1,0,0.00
2013-4-27,78.0,65.4,53.0,60.0,55.4,50.0,91,72,52,30.14,29.98,5,2,0,0.00
2013-4-28,74.0,64.6,59.0,59.0,57.3,56.0,90,78,60,29.89,29.85,4,2,0,0.00
2013-4-29,75.0,63.3,57.0,60.0,56.5,54.0,93,80,58,29.90,29.77,5,2,0,0.00
2013-4-30,70.0,61.9,57.0,57.0,54.8,53.0,87,78,63,29.89,29.81,5,2,0,0.00
2013-5-1,80.0,66.4,59.0,59.0,56.2,54.0,87,71,48,30.07,29.89,5,2,0,0.00
2013-5-2,93.0,83.9,70.0,44.0,18.9,-1.0,35,13,3,30.06,29.97,5,2,0,0.00
2013-5-3,94.0,81.2,67.0,41.0,22.6,8.0,38,13,5,30.01,29.78,6,2,0,0.00
2013-5-4,74.0,64.6,56.0,58.0,52.0,41.0,87,65,39,29.85,29.73,6,2,0,0.00
2013-5-5,67.0,61.8,59.0,56.0,52.6,50.0,80,72,61,29.94,29.83,7,2,0,0.00
2013-5-6,63.0,59.2,56.0,58.0,55.1,52.0,95,87,74,30.01,29.90,5,1,0,0.00
2013-5-7,70.0,62.0,54.0,56.0,51.6,48.0,91,71,47,30.07,29.98,6,2,0,0.00
2013-5-8,70.0,64.5,57.0,56.0,52.2,48.0,86,65,51,30.09,30.05,6,2,0,0.00
2013-5-9,73.0,62.7,54.0,58.0,54.1,50.0,93,75,55,30.09,30.01,5,2,0,0.00
2013-5-10,80.0,66.1,56.0,62.0,55.7,-99.9,92,74,53,30.08,29.99,5,2,0,0.00
2013-5-11,88.0,70.4,58.0,65.0,59.9,-99.9,93,74,44,30.07,29.97,6,1,0,0.00
2013-5-12,92.0,76.2,59.0,65.0,59.6,54.0,94,62,28,30.05,29.90,5,1,0,0.00
2013-5-14,69.0,63.9,61.0,56.0,55.4,55.0,82,74,63,30.00,29.94,2,1,0,0.00
2013-5-15,62.0,60.1,59.0,56.0,55.3,54.0,88,85,78,30.00,29.96,1,0,0,0.00
2013-5-16,75.0,60.6,59.0,59.0,37.7,-99.9,86,75,55,29.98,29.88,5,2,0,0.00
2013-5-17,73.0,66.8,60.0,59.0,51.2,-99.9,90,71,62,29.96,29.93,5,3,0,0.00
2013-5-18,74.0,68.9,61.0,58.0,56.8,54.0,80,66,54,29.98,29.95,5,2,0,0.00
2013-5-19,77.0,65.5,57.0,60.0,56.6,53.0,91,74,51,29.98,29.86,5,2,4,0.00
2013-5-20,85.0,68.9,57.0,63.0,58.9,54.0,92,73,46,29.94,29.85,4,2,0,0.00
2013-5-21,82.0,68.2,61.0,63.0,59.6,58.0,91,76,45,29.93,29.81,5,2,3,0.00
2013-5-22,75.0,65.7,61.0,59.0,56.8,55.0,87,74,56,29.84,29.75,7,2,0,0.00
2013-5-23,72.0,64.8,59.0,56.0,54.7,52.0,84,71,54,29.92,29.80,5,2,0,0.00
2013-5-24,73.0,64.6,59.0,57.0,53.7,51.0,83,69,55,29.97,29.90,5,2,0,0.00
2013-5-25,75.0,63.5,55.0,56.0,52.5,50.0,86,69,47,30.01,29.95,5,2,0,0.00
2013-5-26,72.0,63.6,55.0,57.0,54.2,52.0,89,73,54,30.03,29.97,6,2,0,0.00
2013-5-27,77.0,64.8,55.0,60.0,55.8,52.0,90,74,51,29.99,29.85,5,2,0,0.00
2013-5-28,74.0,65.6,60.0,61.0,57.8,56.0,89,77,60,29.88,29.73,6,2,0,0.00
2013-5-29,76.0,62.9,58.0,60.0,57.1,55.0,93,83,57,29.79,29.70,4,1,0,0.00
2013-5-30,81.0,67.7,58.0,63.0,59.1,55.0,92,76,53,29.87,29.75,6,2,0,0.00
2013-5-31,82.0,68.4,61.0,63.0,59.9,57.0,89,76,52,29.89,29.79,5,2,0,0.00
2013-6-1,86.0,70.2,63.0,66.0,62.0,60.0,90,77,51,29.85,29.73,5,2,0,0.00
2013-6-2,74.0,66.3,62.0,64.0,60.2,57.0,91,81,67,29.82,29.75,6,2,0,0.00
2013-6-3,76.0,66.3,61.0,61.0,58.3,56.0,86,76,58,29.87,29.78,5,2,0,0.00
2013-6-4,76.0,65.3,60.0,60.0,57.9,56.0,91,78,57,29.95,29.87,5,1,0,0.00
2013-6-5,78.0,66.7,60.0,60.0,57.5,56.0,87,74,52,29.98,29.87,4,2,0,0.00
2013-6-6,75.0,65.1,58.0,62.0,58.1,55.0,91,79,61,29.93,29.85,4,2,0,0.00
2013-6-7,77.0,65.2,60.0,62.0,58.5,56.0,89,80,57,29.90,29.76,5,1,0,0.00
2013-6-8,75.0,65.9,62.0,62.0,59.1,57.0,88,80,65,29.89,29.78,5,2,0,0.00
2013-6-9,76.0,65.4,60.0,62.0,58.5,56.0,88,79,60,29.91,29.85,6,2,0,0.00
2013-6-10,78.0,67.2,60.0,60.0,57.0,55.0,87,71,50,29.94,29.87,5,2,0,0.00
2013-6-11,85.0,70.2,58.0,64.0,59.5,55.0,91,71,47,29.92,29.85,5,1,0,0.00
2013-6-12,74.0,66.0,63.0,62.0,59.9,58.0,88,81,66,30.01,29.90,4,2,0,0.00
2013-6-13,79.0,68.4,62.0,62.0,59.5,57.0,86,75,54,29.99,29.87,4,1,0,0.00
2013-6-14,78.0,66.1,60.0,62.0,58.2,55.0,91,77,55,29.91,29.82,5,2,0,0.00
2013-6-15,76.0,65.4,60.0,59.0,56.8,55.0,87,75,53,29.96,29.88,4,2,0,0.00
2013-6-16,79.0,68.1,61.0,61.0,57.9,56.0,86,71,50,30.02,29.92,5,2,0,0.00
2013-6-17,80.0,68.3,59.0,62.0,58.5,56.0,94,73,45,29.97,29.87,4,2,0,0.00
2013-6-18,79.0,68.2,60.0,62.0,59.8,58.0,94,77,52,29.90,29.81,5,2,0,0.00
2013-6-19,79.0,69.4,62.0,62.0,58.5,55.0,88,70,49,29.86,29.77,5,2,0,0.00
2013-6-20,79.0,65.7,58.0,61.0,56.9,52.0,91,75,47,29.84,29.78,4,1,0,0.00
2013-6-21,81.0,79.2,74.0,58.0,56.8,56.0,55,46,42,29.86,29.82,4,4,0,0.00
2013-6-22,79.0,72.8,59.0,61.0,58.5,55.0,92,62,47,29.89,29.79,5,3,0,0.00
2013-6-23,76.0,66.1,61.0,61.0,58.2,56.0,87,77,56,29.86,29.77,5,2,0,0.00
2013-6-24,77.0,67.0,62.0,61.0,58.5,56.0,84,75,57,29.93,29.81,4,1,0,0.00
2013-6-25,77.0,68.5,62.0,64.0,60.9,58.0,89,77,60,29.98,29.88,4,1,0,0.00
2013-6-26,87.0,74.5,62.0,66.0,62.5,59.0,90,69,45,29.96,29.87,4,2,0,0.00
2013-6-27,92.0,75.1,64.0,68.0,64.2,62.0,93,72,43,30.00,29.94,5,1,0,0.00
2013-6-28,94.0,78.5,64.0,68.0,64.1,61.0,92,66,38,29.97,29.84,4,2,0,0.00
2013-6-29,96.0,81.1,67.0,68.0,65.2,62.0,88,61,37,29.87,29.71,5,1,0,0.00
2013-6-30,92.0,77.9,68.0,69.0,65.9,63.0,87,68,47,29.79,29.68,4,1,0,0.00
2013-7-1,95.0,77.6,67.0,68.0,64.8,62.0,89,68,34,29.86,29.78,4,1,0,0.00
2013-7-2,84.0,74.2,66.0,68.0,64.6,62.0,90,73,54,29.96,29.85,5,2,0,0.00
2013-7-3,86.0,74.1,66.0,68.0,64.4,62.0,91,73,51,29.91,29.78,4,1,0,0.00
2013-7-4,85.0,72.6,64.0,66.0,62.8,61.0,91,74,48,29.82,29.72,5,2,0,0.00
2013-7-5,81.0,71.0,65.0,65.0,62.8,61.0,88,76,56,29.82,29.74,4,1,0,0.00
2013-7-6,83.0,70.7,65.0,66.0,62.9,61.0,88,78,56,29.81,29.72,4,1,0,0.00
2013-7-7,85.0,74.2,66.0,68.0,64.3,62.0,87,73,53,29.84,29.73,4,1,0,0.00
2013-7-8,92.0,73.7,62.0,69.0,61.4,54.0,92,69,34,29.90,29.82,4,1,0,0.00
2013-7-9,84.0,74.7,64.0,67.0,61.8,56.0,84,65,50,29.97,29.86,4,1,0,0.00
2013-7-10,81.0,71.9,67.0,67.0,62.5,-99.9,87,75,59,29.95,29.88,4,1,0,0.00
2013-7-11,80.0,71.7,68.0,68.0,65.6,64.0,89,81,64,29.95,29.87,3,1,0,0.00
2013-7-12,85.0,73.6,67.0,70.0,65.4,62.0,93,77,52,29.91,29.82,4,1,0,0.00
2013-7-13,86.0,73.5,65.0,66.0,63.0,61.0,91,72,49,29.93,29.83,4,1,0,0.00
2013-7-14,88.0,74.0,64.0,67.0,62.7,58.0,91,71,36,29.91,29.80,4,2,0,0.00
2013-7-15,88.0,74.7,65.0,67.0,61.7,52.0,92,67,38,29.85,29.77,4,1,0,0.00
2013-7-16,87.0,73.0,58.0,61.0,55.8,49.0,85,58,28,29.96,29.83,4,1,0,0.00
2013-7-17,91.0,74.6,59.0,60.0,53.4,38.0,88,54,17,29.99,29.91,5,1,0,0.00
2013-7-18,85.0,71.7,59.0,63.0,58.2,51.0,87,64,41,29.96,29.83,4,1,0,0.00
2013-7-19,83.0,70.8,62.0,65.0,61.5,58.0,91,74,52,29.88,29.80,4,1,0,0.00
2013-7-20,78.0,67.9,64.0,65.0,61.2,-99.9,88,81,63,29.87,29.78,3,1,0,0.00
2013-7-21,73.0,67.7,64.0,65.0,62.8,60.0,90,84,75,29.91,29.78,2,1,0,0.00
2013-7-22,86.0,72.4,65.0,67.0,63.4,61.0,91,75,53,29.95,29.89,4,1,0,0.00
2013-7-23,84.0,72.7,64.0,67.0,62.8,58.0,90,72,54,30.00,29.89,5,2,0,0.00
2013-7-24,84.0,72.4,63.0,66.0,62.5,60.0,91,72,53,29.95,29.86,4,1,0,0.00
2013-7-25,82.0,71.1,63.0,65.0,62.0,59.0,90,74,53,29.99,29.90,4,1,0,0.00
2013-7-26,85.0,71.5,64.0,66.0,63.1,60.0,89,76,51,30.06,29.93,3,1,0,0.00
2013-7-27,82.0,70.8,64.0,67.0,62.4,59.0,89,76,56,29.99,29.85,4,1,0,0.00
2013-7-28,79.0,67.2,62.0,64.0,60.9,58.0,93,81,57,29.91,29.84,5,1,0,0.00
2013-7-29,79.0,68.5,63.0,62.0,59.5,57.0,88,74,54,30.02,29.90,4,1,0,0.00
2013-7-30,80.0,68.5,59.0,62.0,58.9,56.0,90,73,52,30.10,30.00,5,1,0,0.00
2013-7-31,76.0,66.8,61.0,62.0,58.7,56.0,89,76,61,30.09,29.96,4,1,0,0.00
2013-8-1,79.0,67.0,60.0,61.0,58.7,55.0,86,76,51,30.01,29.88,3,1,0,0.00
2013-8-2,81.0,68.4,61.0,62.0,59.9,58.0,90,76,52,29.96,29.88,4,1,0,0.00
2013-8-3,81.0,69.2,63.0,64.0,60.8,59.0,88,76,55,29.97,29.90,4,1,0,0.00
2013-8-4,81.0,69.7,62.0,64.0,60.9,58.0,90,75,51,29.99,29.90,4,1,0,0.00
2013-8-5,82.0,67.9,59.0,62.0,59.2,56.0,94,76,47,29.98,29.90,4,1,0,0.00
2013-8-6,80.0,68.7,62.0,61.0,59.0,57.0,91,73,49,30.01,29.95,5,1,0,0.00
2013-8-7,78.0,67.9,60.0,60.0,58.5,57.0,89,73,50,30.01,29.95,4,1,0,0.00
2013-8-8,80.0,67.3,57.0,61.0,58.3,54.0,92,75,50,29.98,29.88,4,1,0,0.00
2013-8-9,79.0,66.6,59.0,61.0,58.9,56.0,93,78,52,29.95,29.89,4,1,0,0.00
2013-8-10,79.0,67.5,61.0,61.0,58.3,55.0,90,74,52,30.01,29.93,4,1,0,0.00
2013-8-11,82.0,68.8,60.0,61.0,58.6,56.0,92,73,45,29.97,29.86,4,1,0,0.00
2013-10-2,77.0,66.3,61.0,61.0,58.2,56.0,86,76,52,29.96,29.85,3,1,0,0.00
2013-10-3,75.0,66.8,60.0,61.0,58.1,54.0,87,74,57,29.91,29.80,4,1,0,0.00
2013-10-4,88.0,72.5,56.0,58.0,33.5,11.0,93,41,6,30.01,29.86,6,3,0,0.00
2013-10-5,89.0,77.9,72.0,24.0,18.7,-99.9,16,12,7,30.09,29.99,8,4,0,0.00
2013-10-6,93.0,78.5,65.0,35.0,23.6,15.0,31,15,6,30.05,29.92,4,2,0,0.00
2013-10-7,85.0,68.3,59.0,55.0,42.1,32.0,78,41,23,29.95,29.87,3,1,0,0.00
2013-10-8,75.0,63.6,55.0,58.0,54.5,50.0,92,73,55,29.92,29.80,4,1,0,0.00
2013-10-9,63.0,58.2,52.0,56.0,51.9,50.0,92,80,64,29.82,29.70,7,2,0,0.00
2013-10-10,68.0,56.9,47.0,54.0,48.4,45.0,95,76,44,30.01,29.79,3,0,0,0.00
2013-10-18,85.0,66.6,51.0,56.0,47.4,39.0,73,54,20,29.99,29.90,3,1,0,0.00
2013-10-19,86.0,66.6,53.0,59.0,46.0,-99.9,76,53,24,30.00,29.93,3,1,0,0.00
2013-10-20,78.0,62.6,49.0,58.0,52.5,44.0,88,71,45,29.97,29.88,3,1,0,0.00
2013-10-21,78.0,62.0,53.0,57.0,53.6,50.0,95,77,38,29.97,29.88,4,1,0,0.00
2013-10-22,77.0,62.2,53.0,60.0,55.8,50.0,94,81,53,29.99,29.88,2,1,0,0.00
2013-10-23,69.0,61.8,57.0,58.0,55.9,54.0,91,82,67,29.96,29.88,3,1,0,0.00
2013-10-24,69.0,62.2,59.0,56.0,54.9,54.0,84,78,61,30.02,29.94,3,1,0,0.00
2013-10-25,73.0,63.9,58.0,58.0,56.3,54.0,89,77,59,30.11,29.98,2,0,0,0.00
2013-10-26,76.0,61.8,51.0,62.0,53.5,-99.9,94,78,58,30.08,29.95,2,0,0,0.00
2013-10-27,72.0,61.3,54.0,60.0,56.0,51.0,95,84,64,29.98,29.80,3,1,0,0.00
2013-10-28,63.0,58.0,54.0,56.0,49.7,-99.9,89,78,61,29.92,29.80,5,2,0,0.00
2013-10-29,65.0,57.3,49.0,52.0,48.9,46.0,92,75,54,30.00,29.91,4,1,0,0.00
2013-10-30,71.0,58.2,48.0,52.0,48.2,44.0,92,72,38,30.05,29.96,3,1,0,0.00
2013-12-21,60.0,49.2,43.0,49.0,42.3,-99.9,93,82,63,30.08,29.92,2,0,0,0.00
2013-12-22,69.0,53.5,42.0,51.0,46.3,41.0,95,79,45,30.25,30.08,1,0,0,0.00
2013-12-23,76.0,60.9,47.0,45.0,39.6,34.0,84,51,24,30.30,30.17,3,1,0,0.00
2013-12-24,78.0,66.8,53.0,47.0,38.5,33.0,62,37,24,30.17,30.06,2,1,0,0.00
2013-12-25,80.0,71.0,64.0,33.0,22.0,12.0,31,17,9,30.16,30.08,5,3,0,0.00
2013-12-26,80.0,69.4,56.0,21.0,12.7,7.0,24,12,7,30.15,30.03,4,2,0,0.00
2013-12-27,83.0,63.3,48.0,35.0,22.6,12.0,37,24,7,30.13,30.02,3,0,0,0.00